Wind_Speed
11 11 11 11 12 11 12 13 12 12 13 16 17 18 17 16 16 16 16 17 16 18 19 19 18 19 18 18 17 16 16 16 16 16 15 14 13 13 13 13 13 13 14 14
11 12 12 12 11 11 12 14 14 14 14 17 18 18 16 15 16 16 17 16 16 17 18 18 18 18 18 17 17 17 17 16 16 15 15 14 14 13 13 13 13 14 14 14
12 11 12 12 12 13 15 16 15 15 14 15 17 17 16 15 15 17 17 16 16 16 17 18 17 17 17 17 17 16 16 16 15 14 14 14 14 14 13 13 14 15 15 15
11 12 13 13 14 14 15 15 16 16 16 15 16 18 17 16 15 16 16 16 16 15 17 17 17 16 15 15 15 16 16 15 15 14 15 14 14 13 14 14 15 15 16 17
11 12 13 14 15 16 16 15 17 17 18 18 17 19 17 16 16 16 16 16 16 16 16 16 16 15 14 13 14 15 16 16 15 14 15 15 15 14 14 15 15 16 16 16
12 13 15 15 15 16 16 16 17 17 17 18 17 19 18 17 16 17 17 16 16 16 16 15 15 14 14 13 13 15 15 15 15 14 14 15 15 14 15 15 16 16 16 16
13 14 15 16 16 17 17 17 18 19 18 18 17 19 19 18 18 18 17 16 16 16 16 16 15 15 15 14 14 15 15 15 14 14 14 14 15 15 15 16 16 17 17 16
16 16 16 16 17 17 18 18 18 19 19 19 18 19 17 17 17 17 17 16 17 17 16 15 15 15 15 14 15 15 16 15 14 14 14 14 15 15 16 16 16 17 17 17
19 17 16 16 16 17 17 18 18 19 19 20 19 18 17 17 17 17 17 16 16 16 16 16 16 16 14 14 15 16 16 15 15 15 15 15 15 15 15 15 15 16 17 16
20 19 17 16 16 17 19 19 20 21 21 21 20 19 18 18 18 18 18 17 16 17 18 18 17 16 15 15 15 15 15 14 14 14 14 15 15 15 15 15 15 15 16 16
22 22 18 17 17 18 19 20 20 21 22 22 23 22 19 19 18 18 18 18 18 18 18 18 17 17 17 16 14 14 14 14 14 14 15 15 15 14 15 16 16 17 17 17
23 23 21 18 18 19 20 20 20 21 22 22 23 23 20 20 20 19 19 19 19 18 18 18 18 18 17 16 15 15 14 14 14 14 15 15 15 15 15 16 17 17 17 18
22 23 22 19 19 19 20 20 21 21 22 23 23 22 21 21 21 21 20 20 19 18 18 17 18 17 16 16 15 15 15 15 14 14 15 15 15 16 16 16 17 17 18 19
23 23 24 22 20 20 20 20 21 22 23 23 23 23 22 22 22 22 21 21 19 18 17 17 18 17 16 16 16 16 16 15 15 15 16 16 16 17 17 17 17 18 18 18
24 24 24 23 23 23 23 22 22 22 23 24 23 22 21 22 21 20 20 20 20 19 18 18 17 16 17 17 17 16 16 16 15 16 16 16 17 17 17 17 17 17 18 19
24 24 24 24 24 24 24 23 22 22 23 23 22 22 21 22 22 21 20 20 21 20 19 19 18 16 17 17 17 17 17 17 17 17 17 17 17 17 17 18 18 18 19 20
25 25 25 26 25 25 25 24 23 23 23 23 22 20 21 22 22 21 20 19 19 19 20 20 19 19 19 18 18 18 17 17 18 19 19 19 19 19 18 19 19 19 19 19
24 24 25 26 26 27 24 23 23 24 24 24 23 22 21 20 21 21 20 19 19 19 18 20 21 21 20 20 19 18 19 20 20 20 20 20 20 20 20 20 20 20 20 20
25 25 25 26 27 27 25 24 22 23 23 24 23 23 22 22 22 21 20 20 20 20 19 20 21 20 20 20 20 20 20 21 20 20 21 21 21 21 22 22 21 21 21 21
25 25 25 26 27 26 24 24 23 22 23 22 22 22 23 23 24 22 22 21 21 21 21 21 20 20 20 20 20 20 20 20 20 20 21 21 21 21 22 22 22 21 20 19
23 24 26 26 27 26 25 24 24 24 23 23 23 23 23 24 23 23 23 23 22 22 22 22 21 20 21 21 21 20 20 20 20 20 21 21 21 21 22 22 21 21 20 19
24 24 25 26 26 26 25 25 25 24 23 22 22 22 23 23 22 22 22 22 22 22 22 21 21 21 21 22 22 21 21 21 21 21 22 22 22 22 22 22 22 21 20 20
24 24 24 25 25 25 24 24 23 23 24 24 23 22 22 22 22 21 21 20 21 21 21 21 21 21 22 22 23 23 22 22 22 22 22 22 22 22 22 22 21 21 21 21
24 24 24 24 24 24 24 23 24 24 23 23 24 23 23 23 22 21 21 20 21 21 21 21 22 22 23 23 23 23 23 23 23 22 22 22 22 22 22 22 21 21 22 21
23 23 22 23 23 22 22 22 23 24 24 23 22 22 21 22 22 22 22 21 22 22 22 22 22 23 23 23 23 23 22 22 22 22 23 23 22 22 22 21 21 22 21 21
20 21 22 21 21 22 22 22 22 22 23 23 22 21 21 21 22 22 22 22 22 23 22 22 22 22 22 22 22 21 21 22 22 21 22 22 21 21 21 20 19 20 21 20
Wind_Direction
235 235 237 240 245 248 257 262 260 260 263 266 271 272 273 278 284 290 294 295 299 301 301 300 301 302 297 290 281 278 279 279 277 275 274 275 274 261 263 264 258 255 257 259
240 237 237 240 243 251 263 265 265 262 264 268 270 271 273 277 286 293 292 294 298 301 303 301 301 302 298 291 282 277 275 276 275 272 273 272 269 270 269 266 263 256 257 256
252 248 241 244 245 250 258 264 266 266 270 268 270 267 270 277 283 292 293 293 299 303 304 305 304 303 298 289 282 278 275 270 270 270 272 270 269 268 269 264 263 262 261 261
251 249 243 245 247 250 257 264 267 269 271 269 270 270 271 280 283 290 295 294 299 305 308 308 308 302 300 290 282 276 275 271 269 270 270 269 266 266 267 266 266 263 261 260
254 248 244 247 250 256 263 262 262 266 269 268 268 271 273 281 285 290 294 296 301 304 307 309 309 304 298 292 286 280 277 275 272 272 273 270 268 265 266 267 264 261 259 260
247 244 248 254 255 262 268 268 261 264 267 268 271 271 272 278 285 290 297 300 302 304 306 307 309 306 298 290 288 283 280 278 274 272 272 272 270 267 267 267 263 259 258 261
244 242 250 257 260 261 266 268 265 264 266 269 271 273 275 275 281 287 293 299 301 302 304 303 302 300 296 289 286 284 281 280 277 274 271 273 271 269 270 269 265 261 261 262
254 248 252 258 264 263 264 264 268 270 272 272 273 277 278 277 280 282 287 292 297 299 298 298 297 294 292 288 289 285 281 281 279 275 272 271 272 272 273 271 268 267 265 265
263 258 256 258 262 258 260 262 268 271 270 274 275 276 279 279 282 283 286 289 292 296 297 297 296 291 291 290 288 285 280 278 278 276 275 273 273 275 275 275 271 270 267 265
268 264 259 256 256 255 259 262 264 265 271 276 276 277 277 280 282 284 285 287 287 291 294 292 293 293 291 288 288 288 286 281 278 276 276 276 276 277 275 276 276 272 267 264
264 264 261 254 252 255 254 258 260 262 269 275 277 277 279 284 283 283 286 287 286 287 291 292 290 288 289 290 291 291 285 280 277 273 273 274 276 275 273 274 275 273 270 269
263 263 262 256 254 254 253 256 260 265 267 271 276 279 279 281 282 284 284 284 285 286 288 291 287 287 286 287 288 289 283 277 273 272 273 275 275 276 275 275 277 276 273 273
261 260 262 256 249 249 252 255 258 262 266 270 276 279 277 280 282 281 280 281 285 284 286 288 286 285 286 283 282 282 280 278 274 272 274 275 274 277 278 277 276 276 274 274
257 259 260 259 254 252 253 253 256 260 265 269 272 274 276 279 278 278 277 279 282 281 281 284 288 289 287 282 278 277 278 279 275 273 274 275 275 277 278 277 275 276 277 277
258 257 257 257 256 254 252 254 256 259 264 268 268 270 273 278 278 279 277 276 278 279 281 283 288 286 285 284 281 278 279 278 276 274 273 273 275 275 277 277 279 280 281 281
257 256 254 255 257 256 255 255 257 259 262 266 267 266 272 276 279 279 278 275 276 276 277 280 281 283 283 282 280 279 280 277 276 275 275 275 276 276 278 280 281 282 283 281
256 258 257 255 256 259 256 257 259 261 263 263 266 269 268 271 275 276 276 276 274 272 273 274 279 280 279 281 281 278 277 277 277 276 277 277 278 280 280 279 280 281 282 280
257 256 256 257 257 258 261 262 260 260 263 265 266 267 269 271 273 275 275 276 276 273 275 276 279 281 277 278 279 278 278 280 281 279 279 280 279 280 281 281 281 281 280 280
259 258 257 258 259 261 261 263 265 265 265 264 264 267 267 270 271 270 273 277 277 276 278 280 281 279 279 279 278 279 279 279 279 278 278 279 281 280 280 281 281 281 280 278
256 258 258 257 259 262 263 263 265 267 266 265 264 265 267 268 268 271 275 278 279 278 278 280 281 281 281 281 281 281 280 280 278 279 280 281 281 281 280 280 281 279 278 278
256 258 260 260 259 262 263 263 264 266 269 269 267 267 268 267 268 270 274 275 278 278 279 281 282 283 284 284 283 282 280 280 279 280 281 282 282 281 280 280 280 278 279 278
258 259 258 258 259 263 264 263 263 266 268 269 268 269 269 270 268 268 268 268 272 275 277 279 282 283 283 282 281 281 280 279 278 279 280 281 281 281 280 278 278 277 277 276
259 260 262 262 263 263 263 265 264 265 266 266 265 267 268 268 268 267 267 269 271 272 276 279 281 282 282 282 280 279 277 278 278 279 280 281 281 280 279 277 278 277 275 274
260 260 261 262 262 262 263 264 264 266 268 267 266 266 266 267 268 269 269 269 273 276 279 280 281 282 280 280 279 278 277 276 278 280 281 282 282 279 278 277 277 277 275 275
260 259 258 258 260 263 264 265 263 265 268 269 270 268 268 268 267 271 273 275 277 278 280 280 281 280 279 279 278 278 278 279 278 280 281 282 281 280 279 278 278 277 275 274
258 257 256 258 261 263 263 265 267 269 269 270 271 272 272 271 269 271 274 273 276 279 278 279 281 280 278 278 279 279 279 280 280 281 281 282 281 280 280 278 278 277 276 272
Height
5851 5852 5853 5853 5853 5853 5853 5853 5853 5854 5855 5854 5854 5854 5854 5854 5854 5853 5852 5850 5849 5847 5845 5842 5840 5839 5838 5837 5836 5836 5835 5835 5835 5835 5835 5834 5833 5834 5834 5835 5835 5836 5837 5837
5848 5849 5849 5848 5848 5849 5849 5849 5849 5850 5851 5851 5850 5850 5851 5851 5850 5850 5848 5847 5846 5844 5841 5838 5836 5834 5833 5832 5831 5830 5831 5831 5831 5831 5831 5831 5830 5830 5831 5832 5832 5832 5833 5833
5844 5846 5844 5844 5844 5845 5846 5846 5846 5847 5847 5847 5846 5846 5847 5847 5846 5845 5844 5843 5842 5840 5837 5834 5831 5830 5828 5827 5826 5826 5826 5827 5827 5827 5827 5827 5827 5827 5828 5828 5828 5829 5829 5830
5840 5841 5841 5841 5842 5842 5843 5843 5843 5843 5843 5844 5843 5842 5843 5842 5842 5841 5840 5838 5837 5835 5833 5830 5828 5826 5824 5824 5823 5823 5823 5823 5823 5823 5823 5824 5824 5824 5824 5824 5824 5824 5825 5826
5838 5838 5838 5838 5839 5839 5839 5840 5839 5839 5839 5839 5839 5838 5839 5838 5838 5837 5835 5834 5833 5831 5829 5827 5825 5823 5822 5821 5820 5820 5819 5819 5819 5819 5820 5820 5820 5820 5820 5820 5820 5820 5821 5821
5834 5834 5834 5834 5835 5835 5835 5836 5836 5835 5835 5835 5835 5834 5834 5834 5833 5832 5831 5830 5829 5827 5825 5824 5822 5820 5819 5818 5817 5816 5815 5815 5815 5815 5816 5816 5815 5815 5816 5816 5816 5816 5816 5816
5830 5830 5830 5830 5831 5832 5832 5832 5831 5831 5830 5831 5831 5829 5830 5829 5828 5827 5826 5825 5825 5823 5822 5820 5819 5817 5816 5814 5814 5813 5812 5811 5811 5811 5811 5811 5811 5811 5811 5812 5811 5811 5812 5812
5825 5826 5827 5827 5827 5827 5827 5828 5827 5826 5826 5826 5826 5825 5825 5825 5824 5822 5822 5821 5820 5818 5817 5816 5815 5813 5812 5811 5810 5809 5808 5808 5807 5807 5807 5808 5807 5807 5807 5807 5807 5807 5807 5807
5820 5822 5823 5822 5822 5822 5822 5822 5822 5821 5820 5819 5820 5820 5820 5819 5819 5818 5817 5816 5815 5814 5813 5811 5810 5809 5808 5807 5806 5805 5804 5804 5803 5804 5804 5804 5803 5803 5802 5802 5802 5802 5802 5802
5815 5816 5818 5818 5818 5818 5818 5818 5817 5816 5815 5814 5814 5815 5815 5814 5814 5813 5812 5811 5810 5809 5808 5807 5806 5804 5804 5803 5802 5801 5801 5800 5800 5800 5800 5800 5799 5798 5798 5797 5797 5797 5797 5797
5809 5811 5812 5812 5812 5813 5813 5813 5812 5811 5811 5810 5809 5811 5810 5809 5808 5808 5807 5806 5805 5805 5803 5802 5801 5800 5799 5799 5798 5797 5797 5796 5796 5796 5795 5795 5795 5794 5794 5793 5793 5792 5792 5792
5804 5805 5805 5807 5807 5807 5807 5807 5807 5807 5806 5805 5804 5807 5805 5804 5803 5802 5802 5801 5800 5799 5798 5797 5796 5795 5795 5794 5794 5793 5793 5792 5792 5791 5791 5790 5790 5790 5789 5789 5788 5787 5787 5787
5798 5799 5799 5801 5804 5802 5801 5801 5801 5801 5801 5800 5799 5801 5799 5798 5797 5797 5796 5795 5794 5794 5793 5792 5791 5790 5790 5790 5789 5789 5788 5788 5787 5787 5786 5785 5785 5785 5784 5783 5783 5782 5781 5781
5793 5793 5794 5795 5796 5796 5795 5796 5796 5796 5795 5794 5794 5794 5793 5792 5792 5791 5790 5790 5789 5789 5788 5787 5786 5786 5785 5785 5785 5784 5783 5783 5782 5782 5781 5780 5780 5779 5779 5777 5777 5776 5775 5775
5786 5786 5787 5788 5788 5789 5789 5790 5790 5790 5789 5789 5789 5788 5788 5787 5786 5785 5785 5784 5784 5784 5783 5782 5782 5781 5781 5780 5780 5779 5779 5778 5778 5777 5776 5776 5775 5773 5773 5772 5771 5770 5769 5769
5779 5779 5780 5781 5781 5782 5783 5783 5783 5783 5783 5782 5782 5783 5782 5781 5780 5779 5779 5779 5778 5778 5778 5778 5777 5776 5776 5775 5774 5774 5773 5773 5772 5772 5771 5770 5769 5768 5767 5766 5765 5764 5763 5763
5772 5773 5773 5774 5775 5775 5776 5777 5777 5777 5776 5776 5776 5777 5776 5775 5774 5773 5774 5773 5773 5773 5772 5772 5772 5771 5770 5769 5769 5768 5767 5767 5766 5765 5765 5764 5763 5763 5762 5761 5760 5758 5757 5756
5766 5766 5766 5766 5768 5768 5772 5770 5770 5770 5770 5770 5770 5770 5770 5769 5768 5768 5768 5768 5767 5767 5767 5767 5766 5765 5764 5763 5763 5762 5761 5761 5760 5759 5758 5757 5757 5756 5755 5754 5753 5752 5751 5750
5758 5758 5758 5759 5759 5760 5763 5763 5763 5763 5763 5763 5763 5763 5764 5763 5763 5763 5762 5762 5762 5762 5761 5761 5760 5759 5758 5757 5757 5756 5755 5754 5753 5752 5751 5751 5750 5749 5748 5747 5746 5745 5744 5743
5751 5751 5751 5751 5752 5753 5757 5756 5756 5756 5756 5757 5756 5756 5757 5757 5757 5757 5756 5756 5756 5756 5755 5754 5753 5753 5752 5751 5750 5749 5748 5748 5747 5746 5745 5744 5743 5742 5741 5740 5739 5738 5737 5736
5743 5743 5743 5743 5744 5745 5748 5748 5749 5750 5751 5750 5750 5750 5750 5750 5750 5750 5749 5750 5749 5749 5749 5748 5747 5746 5745 5745 5744 5743 5742 5741 5740 5739 5738 5737 5736 5735 5734 5733 5732 5731 5731 5730
5735 5736 5736 5736 5737 5740 5740 5741 5742 5742 5743 5742 5742 5743 5743 5743 5743 5742 5742 5742 5743 5742 5742 5741 5741 5740 5739 5738 5738 5737 5736 5736 5734 5733 5732 5731 5729 5728 5727 5726 5725 5724 5724 5723
5728 5729 5729 5730 5731 5731 5732 5733 5734 5735 5735 5735 5736 5736 5736 5736 5736 5736 5736 5735 5735 5735 5735 5734 5734 5733 5733 5732 5731 5731 5730 5729 5728 5727 5725 5724 5722 5721 5720 5719 5718 5717 5717 5717
5721 5721 5722 5722 5723 5724 5725 5725 5726 5727 5728 5728 5729 5729 5729 5729 5729 5728 5728 5728 5728 5728 5728 5727 5727 5727 5726 5725 5724 5723 5723 5722 5721 5720 5719 5717 5716 5714 5713 5712 5711 5710 5710 5710
5714 5714 5715 5716 5717 5717 5719 5719 5720 5721 5721 5721 5722 5722 5722 5722 5722 5722 5721 5721 5721 5721 5720 5720 5720 5719 5719 5718 5717 5717 5716 5715 5714 5713 5712 5710 5709 5707 5706 5705 5704 5703 5703 5702
5707 5708 5709 5710 5711 5711 5713 5713 5714 5714 5715 5715 5715 5715 5715 5715 5715 5715 5714 5714 5714 5714 5713 5712 5712 5712 5711 5711 5710 5710 5709 5708 5707 5706 5705 5704 5702 5700 5699 5698 5697 5696 5696 5695